Cloud_Cover
0 0 0 0 0 0 0 0 0 0 0 0 0 0 0 0 8 8 12 20 20 36 68 92 92 92 92 92 92 92 92 92 92 92 92 92 92 92 92 92 92 88 88 88 88 80 80 92 92 92 92 92 92 92 92 80 80 80 76 76 64 56 56 56 48 36 32 36 44
0 0 0 0 0 0 0 0 0 0 0 0 0 0 0 0 0 0 0 0 0 0 8 12 20 24 48 92 76 80 76 24 48 76 92 92 92 92 92 92 92 92 92 92 92 92 92 92 92 92 92 92 92 92 92 76 76 80 80 68 64 48 44 44 44 36 36 36 44
0 0 0 0 0 0 0 0 0 0 0 0 0 0 0 0 0 0 0 0 0 0 0 0 0 0 0 8 8 8 8 0 0 8 12 36 56 76 92 92 92 88 80 92 92 92 92 92 92 92 92 92 92 92 88 68 68 80 80 68 56 48 44 36 32 36 36 44 48
0 0 0 0 0 0 0 0 0 0 0 0 0 0 0 0 0 0 0 0 0 0 0 0 0 0 0 0 0 0 0 0 0 0 0 0 0 8 24 56 44 68 80 56 80 92 88 56 88 92 92 92 92 92 92 92 92 92 92 92 80 64 48 32 32 32 36 44 48
0 0 0 0 0 0 0 0 0 0 0 0 0 0 0 0 0 8 8 0 0 0 0 0 0 0 0 0 0 0 0 0 0 0 0 0 0 0 0 8 12 20 32 76 56 44 36 24 24 64 92 92 92 92 92 92 92 92 92 92 92 92 88 64 44 36 36 44 48
0 0 0 0 0 0 0 0 0 0 0 0 0 0 0 0 8 12 12 8 0 0 0 0 0 0 0 0 0 0 0 0 0 0 0 0 0 0 0 0 0 0 0 8 36 48 56 64 56 48 64 92 92 92 92 92 92 92 92 92 92 92 92 76 64 56 56 56 68
0 0 0 0 0 0 0 0 0 0 0 0 0 0 0 0 8 8 0 0 0 0 0 0 0 0 0 0 0 0 0 0 0 0 0 0 0 0 0 0 0 0 0 8 24 56 76 92 92 80 76 92 92 92 92 92 92 92 92 92 92 92 92 92 88 80 80 76 88
0 0 0 0 0 0 0 0 0 0 0 0 0 0 0 0 0 0 0 0 0 0 0 0 0 0 0 0 0 0 0 0 0 0 0 0 0 0 0 0 0 0 0 0 24 32 32 56 80 92 88 68 88 92 92 92 92 92 92 92 92 92 92 92 92 92 92 92 92
20 20 12 8 8 0 0 0 0 0 0 0 0 0 0 0 0 0 0 0 0 0 0 0 0 0 0 8 8 8 8 0 0 0 0 0 0 0 0 0 0 0 0 0 24 32 24 12 24 56 88 88 68 56 56 64 80 76 76 88 92 92 92 92 92 92 92 92 92
36 44 48 48 44 32 20 8 0 0 0 0 0 0 0 0 0 0 0 0 0 0 0 0 0 0 0 0 0 0 8 8 0 0 0 0 0 0 0 0 0 12 20 24 56 68 64 48 36 32 32 36 56 44 24 20 24 32 44 48 56 68 80 80 80 88 92 92 92
20 32 36 36 32 24 12 12 8 0 0 0 0 0 0 0 0 0 0 0 0 0 0 0 0 0 0 0 0 0 0 0 0 8 8 8 8 12 8 8 8 12 24 32 64 76 80 88 88 76 64 56 44 36 32 24 36 36 32 36 36 48 64 64 68 76 80 92 88
8 8 12 12 12 12 12 20 12 8 0 0 0 0 0 0 0 0 0 0 0 0 0 0 0 0 0 0 0 0 0 0 0 0 0 0 8 12 20 24 12 12 8 0 12 24 44 64 80 88 88 88 80 68 64 48 64 56 44 36 24 36 56 48 56 64 76 92 92
8 8 12 12 20 20 24 24 20 12 8 0 0 0 0 0 0 0 0 0 0 0 0 0 0 0 0 0 0 0 0 0 0 0 0 0 0 0 0 8 20 8 0 0 0 0 0 0 36 56 68 76 88 88 88 88 88 76 64 56 56 56 56 44 44 56 76 92 92
12 20 20 24 24 20 20 12 12 12 12 0 0 0 0 0 0 0 0 0 0 0 0 0 0 0 0 0 0 0 0 0 0 0 0 0 0 0 0 0 0 0 0 0 0 0 0 0 0 0 12 32 48 64 68 56 64 76 88 88 88 80 68 48 36 56 80 88 92
36 36 32 24 12 8 0 0 0 8 12 8 0 0 0 0 0 0 0 0 0 0 0 0 0 0 0 0 0 0 0 0 0 0 0 0 0 0 0 0 0 0 0 0 0 0 0 0 0 0 0 0 0 8 12 0 12 32 56 76 80 68 48 44 44 44 56 80 92
48 36 20 0 0 0 0 0 8 8 8 8 0 0 0 0 0 0 0 0 0 0 0 0 0 0 0 0 0 0 0 0 0 0 0 0 0 0 0 0 8 8 12 12 12 8 8 8 0 0 0 0 0 0 0 0 0 0 8 32 48 48 48 44 32 32 32 48 64
24 12 0 0 0 8 8 12 12 12 12 8 0 0 0 0 0 0 0 0 0 0 0 0 0 0 0 0 0 0 0 0 0 0 0 0 0 0 12 20 20 24 24 24 24 20 12 12 8 8 0 0 0 0 0 0 0 0 0 0 0 12 20 20 8 8 12 12 24
0 0 0 8 12 20 20 24 20 20 20 8 0 0 0 0 0 0 0 0 0 0 0 0 0 0 0 0 0 0 0 0 0 0 0 8 8 20 32 32 32 36 36 36 32 24 24 20 12 8 8 8 0 0 0 0 0 0 0 0 0 0 0 0 0 0 0 8 8
8 12 20 20 24 24 24 24 20 20 20 12 0 0 0 0 0 0 0 0 0 0 0 0 0 0 0 0 0 0 0 0 0 0 8 12 20 24 32 32 32 32 32 32 32 24 24 20 12 12 12 8 12 20 20 24 24 20 20 12 20 20 20 32 12 8 8 8 8
20 24 24 24 24 24 24 24 20 20 20 8 0 0 0 0 0 0 0 0 0 0 0 0 0 0 0 0 0 0 0 0 0 0 8 12 20 24 24 24 24 24 24 24 24 20 20 12 12 12 8 8 36 64 76 76 76 64 48 56 68 68 76 80 64 36 12 0 0
32 24 24 24 24 24 24 24 20 20 12 0 0 0 0 0 0 0 0 0 0 0 0 0 0 0 0 0 0 0 0 0 0 0 8 0 8 8 12 12 12 12 12 12 12 12 12 12 8 8 8 8 64 88 92 92 92 88 80 68 88 92 88 64 56 36 20 0 0
32 24 24 24 24 24 24 24 20 12 0 0 0 0 0 0 0 0 0 0 0 0 0 0 0 0 0 0 0 0 0 0 0 0 0 0 0 0 0 0 0 8 8 8 8 8 8 0 0 0 0 0 32 68 92 92 92 92 88 68 56 56 44 12 20 12 12 0 0
24 24 24 24 24 24 20 20 8 0 0 0 0 0 0 0 0 0 0 0 0 0 0 0 0 0 0 0 0 0 0 0 0 0 0 0 0 0 0 0 0 0 0 0 0 0 0 0 0 0 0 0 0 32 64 92 92 92 92 80 44 20 8 0 0 0 0 0 0
24 24 24 24 24 12 0 0 0 0 0 0 0 0 0 0 0 0 0 0 0 0 0 0 0 0 0 0 0 0 0 0 0 0 0 0 0 0 0 0 0 0 0 0 0 0 0 0 0 0 0 0 0 0 20 44 80 92 92 92 44 12 0 0 0 0 0 0 0
24 24 20 0 0 0 0 0 0 0 0 0 0 0 0 0 0 0 0 0 0 0 0 0 0 0 0 0 0 0 0 0 0 0 0 0 0 0 0 0 0 0 0 0 0 0 0 0 0 0 0 0 0 0 0 8 12 32 44 48 36 12 0 0 0 0 0 0 0
8 0 0 0 0 0 0 0 0 0 0 0 0 0 0 0 0 0 0 0 0 0 0 0 0 0 0 0 0 0 0 0 0 0 0 0 0 0 0 0 0 0 0 0 0 0 0 0 0 0 0 0 0 0 0 0 0 0 0 8 0 0 0 0 0 0 0 0 0
0 0 0 0 0 0 0 0 0 0 0 0 0 0 0 0 0 0 0 0 0 0 0 0 0 0 0 0 0 0 0 0 0 0 0 0 0 0 0 0 0 0 0 0 0 0 0 0 0 0 0 0 8 8 8 0 0 0 0 0 0 0 0 0 0 0 0 0 0
0 0 0 0 0 0 0 0 0 0 0 0 0 0 0 0 0 0 0 0 0 0 0 0 0 0 0 0 0 0 0 0 0 0 0 0 0 0 0 0 0 0 0 0 0 0 0 0 0 0 0 0 0 8 0 0 0 0 0 0 0 0 0 0 0 0 0 0 0
0 0 0 0 0 0 0 0 0 0 0 0 0 0 0 0 0 0 0 0 0 0 0 0 0 0 0 0 0 0 0 0 0 0 0 0 0 0 0 0 0 0 0 0 0 0 0 0 0 0 0 8 20 12 8 0 0 0 0 0 0 0 8 8 8 0 0 0 0
0 0 0 0 0 0 0 0 0 0 0 0 0 0 0 0 0 0 0 0 0 0 0 0 0 0 0 0 0 0 0 0 0 0 0 0 0 0 0 0 0 0 0 0 0 0 0 0 0 8 12 24 20 12 8 0 0 0 0 20 12 8 8 8 8 0 0 0 0
0 0 0 0 0 0 0 0 0 0 0 0 0 0 0 0 0 0 0 0 0 0 0 0 0 0 0 0 0 0 0 0 0 0 0 0 0 0 0 0 0 0 0 0 0 0 0 12 24 36 36 32 24 20 20 20 32 32 32 36 24 12 0 0 0 0 8 12 12
0 0 0 0 0 0 0 0 0 0 0 0 0 0 0 0 0 0 0 0 0 0 0 0 0 0 0 0 0 0 0 0 0 0 0 0 0 0 0 8 8 8 0 0 24 24 24 44 48 48 44 44 56 80 92 92 92 92 92 92 44 12 0 0 8 8 12 24 56
0 0 0 0 0 0 0 8 12 8 8 0 0 0 0 0 0 0 0 0 0 0 0 0 0 0 0 0 0 0 0 0 0 12 24 36 44 48 48 64 64 56 48 36 76 80 80 80 80 80 80 92 92 92 92 92 92 92 92 88 56 20 0 0 12 24 36 48 80
0 0 0 0 0 8 24 64 56 44 36 44 36 32 20 0 0 0 0 0 0 0 0 0 0 0 0 0 0 0 0 0 8 20 44 88 88 88 88 88 88 88 80 80 80 80 80 80 88 92 92 92 92 92 92 92 92 92 80 48 12 0 0 0 12 24 44 64 80
0 0 0 0 0 24 56 80 80 80 80 80 80 80 64 20 0 0 0 0 0 0 0 0 0 0 0 0 0 0 0 0 8 20 44 76 80 88 88 88 88 88 80 80 80 80 80 80 80 88 92 92 92 92 92 92 80 64 36 0 0 0 0 0 0 12 36 56 68
8 8 8 12 20 56 80 80 80 80 80 80 80 80 68 48 12 0 0 0 0 0 0 0 0 0 0 0 0 0 0 0 0 0 12 32 64 76 80 88 88 80 80 80 80 80 80 80 80 80 88 92 88 88 88 88 36 8 0 0 0 0 0 0 0 8 12 24 32
36 36 44 48 56 68 80 80 80 80 80 80 80 80 76 68 32 8 0 0 0 0 0 0 0 0 0 0 0 0 0 0 0 0 0 8 20 36 64 80 64 56 64 64 68 68 64 64 64 56 56 56 48 48 44 44 8 0 0 0 0 0 0 8 12 20 24 24 12
76 80 80 80 80 80 80 80 80 76 68 64 64 64 56 48 32 20 8 0 0 0 0 0 0 0 0 0 0 0 0 0 0 0 0 0 0 0 20 48 12 0 8 20 20 24 20 12 8 8 0 0 0 8 8 0 0 0 0 0 0 0 8 24 36 36 32 12 8
80 80 80 80 80 80 76 68 64 48 36 32 24 20 20 24 20 20 12 12 12 8 8 0 0 0 0 0 0 0 0 0 0 0 0 0 0 0 0 0 0 0 0 0 0 0 0 0 0 0 0 0 0 0 0 0 0 0 0 0 0 0 12 32 36 32 20 8 0
80 80 80 80 80 76 64 44 32 24 20 20 12 8 12 12 20 24 24 32 32 32 24 20 8 0 0 0 0 0 0 0 0 0 0 0 0 0 0 0 0 0 0 0 0 0 0 0 0 0 0 0 0 0 0 0 0 0 0 0 0 0 0 12 12 8 0 0 0
80 80 80 80 76 64 44 24 20 20 20 20 20 24 24 32 36 44 48 56 48 48 44 36 20 8 0 0 0 0 0 0 0 0 0 0 0 0 0 0 0 0 0 0 0 0 0 0 0 0 0 0 0 0 0 0 0 0 0 0 0 0 0 0 0 0 0 20 36